This is the latest recevied weather packets stored in our database for station/object DB0FN-10. If no packets are shown the sender has not sent any weather packets the latest 10 day(s).
| Time | Temp. | Humidity | Pressure | Rain* | Wind** | Luminosity | Snow |
|---|---|---|---|---|---|---|---|
| 1788022952 | 26.67° C | 38% | 1020.9 hPa | - | - | - | - |
| 1788022052 | 26.67° C | 37% | 1020.8 hPa | - | - | - | - |
| 1788021152 | 26.67° C | 38% | 1020.8 hPa | - | - | - | - |
| 1788020252 | 26.67° C | 40% | 1020.9 hPa | - | - | - | - |
| 1788019352 | 26.67° C | 38% | 1021 hPa | - | - | - | - |
| 1788018452 | 26.67° C | 37% | 1021.1 hPa | - | - | - | - |
| 1788017552 | 26.67° C | 39% | 1021.2 hPa | - | - | - | - |
| 1788016652 | 27.22° C | 37% | 1021.3 hPa | - | - | - | - |
| 1788015752 | 26.67° C | 37% | 1021.1 hPa | - | - | - | - |
| 1788014852 | 27.22° C | 36% | 1021.1 hPa | - | - | - | - |
| 1788013951 | 27.22° C | 37% | 1021.2 hPa | - | - | - | - |
| 1788013051 | 27.22° C | 35% | 1021.1 hPa | - | - | - | - |
| 1788012151 | 26.67° C | 39% | 1021.2 hPa | - | - | - | - |
| 1788011251 | 26.67° C | 40% | 1021.2 hPa | - | - | - | - |
| 1788010351 | 27.22° C | 42% | 1021.4 hPa | - | - | - | - |
| 1788009451 | 27.22° C | 41% | 1021.4 hPa | - | - | - | - |
| 1788008551 | 27.22° C | 40% | 1021.4 hPa | - | - | - | - |
| 1788007651 | 26.67° C | 37% | 1021.4 hPa | - | - | - | - |
| 1788006751 | 27.22° C | 42% | 1021.7 hPa | - | - | - | - |
| 1788005851 | 26.67° C | 43% | 1021.7 hPa | - | - | - | - |
| 1788004951 | 26.11° C | 46% | 1022 hPa | - | - | - | - |
| 1788004051 | 26.67° C | 46% | 1022.1 hPa | - | - | - | - |
| 1788003151 | 26.67° C | 43% | 1022.2 hPa | - | - | - | - |
| 1788002251 | 26.11° C | 44% | 1022.3 hPa | - | - | - | - |
| 1788001350 | 26.11° C | 43% | 1022.5 hPa | - | - | - | - |
* Rain since midnight (hover to see other rain measurements)
** Current wind speed in m/s (hover to see current wind gust speed)